This is the latest recevied weather packets stored in our database for station/object W5ZYX. If no packets are shown the sender has not sent any weather packets the latest 10 day(s).
| Time | Temp. | Humidity | Pressure | Rain* | Wind** | Luminosity | Snow |
|---|---|---|---|---|---|---|---|
| 1777903837 | 18.89° C | 75% | 1016.4 hPa | 0 mm | - | - | - |
| 1777903538 | 18.89° C | 76% | 1016.4 hPa | 0 mm | - | - | - |
| 1777903259 | 18.33° C | 78% | 1016.4 hPa | 0 mm | - | - | - |
| 1777902937 | 18.33° C | 78% | 1016.4 hPa | 0 mm | - | - | - |
| 1777902638 | 17.78° C | 78% | 1016.3 hPa | 0 mm | - | - | - |
| 1777902347 | 17.78° C | 78% | 1016.4 hPa | 0 mm | - | - | - |
| 1777902039 | 17.22° C | 79% | 1016.4 hPa | 0 mm | - | - | - |
| 1777901739 | 17.22° C | 80% | 1016.5 hPa | 0 mm | - | - | - |
| 1777901447 | 16.67° C | 81% | 1016.5 hPa | 0 mm | - | - | - |
| 1777901137 | 16.11° C | 82% | 1016.4 hPa | 0 mm | - | - | - |
| 1777900838 | 16.11° C | 83% | 1016.4 hPa | 0 mm | - | - | - |
| 1777900560 | 15.56° C | 84% | 1016.3 hPa | 0 mm | - | - | - |
| 1777900238 | 15.56° C | 84% | 1016.3 hPa | 0 mm | - | - | - |
| 1777899938 | 15° C | 86% | 1016.2 hPa | 0 mm | - | - | - |
| 1777899650 | 14.44° C | 86% | 1016.3 hPa | 0 mm | - | - | - |
| 1777899338 | 14.44° C | 87% | 1016.2 hPa | 0 mm | - | - | - |
| 1777899040 | 13.89° C | 88% | 1016.2 hPa | 0 mm | - | - | - |
| 1777898752 | 13.89° C | 88% | 1016.2 hPa | 0 mm | - | - | - |
| 1777898437 | 13.33° C | 88% | 1016.2 hPa | 0 mm | - | - | - |
| 1777898137 | 13.33° C | 89% | 1016.2 hPa | 0 mm | - | - | - |
| 1777897848 | 12.78° C | 89% | 1016.3 hPa | 0 mm | - | - | - |
| 1777897538 | 12.78° C | 89% | 1016.4 hPa | 0 mm | - | - | - |
| 1777897238 | 12.78° C | 90% | 1016.2 hPa | 0 mm | - | - | - |
| 1777896951 | 12.22° C | 90% | 1016.1 hPa | 0 mm | - | - | - |
| 1777896638 | 12.22° C | 90% | 1016.2 hPa | 0 mm | - | - | - |
* Rain latest hour (hover to see other rain measurements)
** Current wind speed in m/s (hover to see current wind gust speed)